TimeEDT,TemperatureF,Dew PointF,Humidity,Sea Level PressureIn,VisibilityMPH,Wind Direction,Wind SpeedMPH,Gust SpeedMPH,PrecipitationIn,Events,Conditions,WindDirDegrees,DateUTC
12:53 AM,73.0,70.0,90,29.98,6.0,Calm,Calm,-,N/A,,Scattered Clouds,0,2013-09-12 04:53:00
1:53 AM,72.0,69.1,91,29.97,6.0,Calm,Calm,-,N/A,,Clear,0,2013-09-12 05:53:00
2:53 AM,70.0,68.0,93,29.95,4.0,Calm,Calm,-,N/A,,Clear,0,2013-09-12 06:53:00
3:53 AM,69.1,66.9,93,29.95,3.0,Calm,Calm,-,N/A,,Clear,0,2013-09-12 07:53:00
4:53 AM,70.0,68.0,93,29.94,3.0,Calm,Calm,-,N/A,,Scattered Clouds,0,2013-09-12 08:53:00
5:53 AM,70.0,66.9,90,29.95,3.0,Calm,Calm,-,N/A,,Mostly Cloudy,0,2013-09-12 09:53:00
6:02 AM,69.8,66.2,88,29.95,2.5,Calm,Calm,-,N/A,,Mostly Cloudy,0,2013-09-12 10:02:00
6:32 AM,69.8,66.2,88,29.95,2.0,Calm,Calm,-,N/A,,Clear,0,2013-09-12 10:32:00
6:39 AM,69.8,66.2,88,29.95,1.8,Calm,Calm,-,N/A,,Clear,0,2013-09-12 10:39:00
6:53 AM,69.1,66.9,93,29.95,1.5,Calm,Calm,-,N/A,,Partly Cloudy,0,2013-09-12 10:53:00
7:50 AM,73.4,69.8,88,29.95,2.0,Calm,Calm,-,N/A,,Partly Cloudy,0,2013-09-12 11:50:00
7:53 AM,73.0,70.0,90,29.95,2.5,Calm,Calm,-,N/A,,Clear,0,2013-09-12 11:53:00
8:13 AM,75.2,69.8,83,29.94,3.0,SE,3.5,-,N/A,,Haze,130,2013-09-12 12:13:00
8:53 AM,79.0,71.1,77,29.91,6.0,Calm,Calm,-,N/A,,Haze,0,2013-09-12 12:53:00
9:06 AM,80.6,71.6,74,29.92,7.0,Calm,Calm,-,N/A,Thunderstorm,Thunderstorm,0,2013-09-12 13:06:00
9:33 AM,73.4,68.0,83,29.95,4.0,NW,18.4,25.3,0.00,Rain-Thunderstorm,Light Thunderstorms and Rain,310,2013-09-12 13:33:00
9:37 AM,71.6,66.2,83,29.94,2.5,NW,12.7,25.3,0.04,Rain-Thunderstorm,Thunderstorms and Rain,320,2013-09-12 13:37:00
9:51 AM,69.8,66.2,88,29.93,-9999.0,SW,3.5,-,0.06,Thunderstorm,Thunderstorm,220,2013-09-12 13:51:00
9:54 AM,70.0,66.0,87,29.93,4.0,South,3.5,-,0.06,Rain-Thunderstorm,Light Thunderstorms and Rain,190,2013-09-12 13:54:00
10:12 AM,69.8,66.2,88,29.93,1.8,SE,5.8,-,0.10,Rain-Thunderstorm,Heavy Thunderstorms and Rain,130,2013-09-12 14:12:00
10:20 AM,69.8,66.2,88,29.93,2.5,East,3.5,-,0.11,Rain-Thunderstorm,Light Rain,100,2013-09-12 14:20:00
10:26 AM,69.8,66.2,88,29.92,10.0,East,3.5,-,0.11,Rain,Light Rain,100,2013-09-12 14:26:00
10:53 AM,72.0,68.0,87,29.92,10.0,Calm,Calm,-,0.11,,Partly Cloudy,0,2013-09-12 14:53:00
11:53 AM,79.0,73.0,82,29.89,7.0,Variable,4.6,-,N/A,,Partly Cloudy,0,2013-09-12 15:53:00
12:53 PM,84.0,73.0,69,29.85,7.0,SSW,6.9,-,N/A,,Clear,200,2013-09-12 16:53:00
1:53 PM,86.0,73.0,65,29.82,7.0,Variable,3.5,-,N/A,,Mostly Cloudy,0,2013-09-12 17:53:00
2:38 PM,84.2,71.6,66,29.81,8.0,WSW,3.5,-,N/A,Thunderstorm,Thunderstorm,240,2013-09-12 18:38:00
2:53 PM,81.0,71.1,72,29.81,4.0,SW,17.3,28.8,0.01,Rain-Thunderstorm,Thunderstorms and Rain,220,2013-09-12 18:53:00
3:00 PM,75.2,64.4,69,29.80,1.5,Variable,5.8,28.8,0.00,Rain-Thunderstorm,Light Thunderstorms and Rain,0,2013-09-12 19:00:00
3:10 PM,75.2,66.2,73,29.79,10.0,South,9.2,16.1,0.00,Thunderstorm,Thunderstorm,190,2013-09-12 19:10:00
3:53 PM,84.0,71.1,65,29.75,10.0,SE,5.8,-,0.00,,Clear,130,2013-09-12 19:53:00
4:20 PM,80.6,71.6,74,29.75,10.0,South,9.2,-,N/A,Thunderstorm,Clear,190,2013-09-12 20:20:00
4:34 PM,69.8,66.2,88,29.82,1.0,Variable,5.8,28.8,0.22,Rain-Thunderstorm,Heavy Thunderstorms and Rain,0,2013-09-12 20:34:00
4:36 PM,69.8,66.2,88,29.81,0.8,SSW,6.9,28.8,0.24,Rain-Thunderstorm,Heavy Thunderstorms and Rain,200,2013-09-12 20:36:00
4:43 PM,69.8,66.2,88,29.79,0.8,East,10.4,-,0.28,Rain-Thunderstorm,Heavy Thunderstorms and Rain,90,2013-09-12 20:43:00
4:45 PM,69.8,66.2,88,29.79,1.2,East,11.5,-,0.28,Rain-Thunderstorm,Heavy Thunderstorms and Rain,100,2013-09-12 20:45:00
4:49 PM,69.8,66.2,88,29.80,2.5,ESE,5.8,-,0.28,Rain-Thunderstorm,Light Thunderstorms and Rain,120,2013-09-12 20:49:00
4:53 PM,69.1,66.9,93,29.80,4.0,SSE,6.9,-,0.29,Rain-Thunderstorm,Light Thunderstorms and Rain,150,2013-09-12 20:53:00
5:28 PM,71.6,68.0,88,29.80,5.0,SE,4.6,-,0.00,,Scattered Clouds,140,2013-09-12 21:28:00
5:53 PM,72.0,68.0,87,29.79,10.0,SE,4.6,-,0.00,,Clear,130,2013-09-12 21:53:00
6:53 PM,71.1,68.0,90,29.77,8.0,Calm,Calm,-,N/A,,Clear,0,2013-09-12 22:53:00
7:53 PM,70.0,66.9,90,29.77,7.0,Calm,Calm,-,N/A,,Partly Cloudy,0,2013-09-12 23:53:00
8:53 PM,69.1,66.9,93,29.76,5.0,Calm,Calm,-,N/A,,Partly Cloudy,0,2013-09-13 00:53:00
9:24 PM,69.8,68.0,94,29.78,4.0,WSW,3.5,-,N/A,,Overcast,250,2013-09-13 01:24:00
9:53 PM,70.0,68.0,93,29.78,4.0,Calm,Calm,-,N/A,,Overcast,0,2013-09-13 01:53:00
10:53 PM,70.0,66.9,90,29.77,9.0,Calm,Calm,-,N/A,,Overcast,0,2013-09-13 02:53:00
11:53 PM,69.1,66.0,90,29.75,10.0,Calm,Calm,-,0.00,,Overcast,0,2013-09-13 03:53:00